Weather History for Logan, UT

Change the Weather History Date:

Monday, February 11, 2013

  Actual Average Record
Temperature  
Mean Temperature 6 °F -  
Max Temperature 17 °F 34 °F 61 °F (1961)
Min Temperature -5 °F 14 °F -14 °F (1982)
Degree Days  
Heating Degree Days 59    
Moisture  
Dew Point 4 °F    
Average Humidity 86    
Maximum Humidity 100    
Minimum Humidity 59    
Precipitation  
Precipitation 0.00 in - - ()
Sea Level Pressure  
Sea Level Pressure 30.20 in    
Wind  
Wind Speed 1 mph (NW)    
Max Wind Speed 7 mph    
Max Gust Speed -    
Visibility 4 miles    
Events Fog    
Averages and records for this station are not official NWS values.
T = Trace of Precipitation, MM = Missing Value Source: NWS Daily Summary

Daily Weather History Graph

Daily Weather History Graph

Search for Another Location

Airport:

Trip Planner

Search our weather history database for the weather conditions in past years. The results will help you decide how hot, cold, wet, or windy it might be!

Date:

Astronomy

Feb. 11, 2013 Rise Set
Actual Time 7:27 AM MST 5:56 PM MST
Civil Twilight 6:59 AM MST 6:24 PM MST
Nautical Twilight 6:26 AM MST 6:57 PM MST
Astronomical Twilight 5:54 AM MST 7:29 PM MST
Moon 7:52 AM MST (2/11) 7:59 PM MST (2/11)
Length of Visible Light 11h 25m
Length of Day
10h 28m
Waxing Crescent, 3% of the Moon is Illuminated
Feb 11
Waxing Crescent
Feb 17
First Quarter
Feb 25
Full
Mar 4
Last Quarter
Mar 11
New

Hourly Weather History & Observations

Time (MST) Temp. Windchill Dew Point Humidity Pressure Visibility Wind Dir Wind Speed Gust Speed Precip Events Conditions
12:07 AM 12.2 °F - 10.4 °F 92% 30.04 in 1.8 mi Calm Calm - N/A   Mostly Cloudy
12:11 AM 12.2 °F 6.1 °F 8.6 °F 85% 30.04 in 0.8 mi NW 3.5 mph - N/A   Overcast
12:22 AM 12.2 °F 6.1 °F 8.6 °F 85% 30.04 in 0.2 mi NNW 3.5 mph - N/A Fog Light Freezing Fog
12:33 AM 15.8 °F - 12.2 °F 86% 30.04 in 0.5 mi Calm Calm - N/A Fog Light Freezing Fog
12:40 AM 14.0 °F - 12.2 °F 93% 30.04 in 2.5 mi Calm Calm - N/A   Overcast
12:51 AM 12.9 °F - 9.0 °F 84% 30.17 in 1.0 mi Calm Calm - N/A   Overcast
1:02 AM 14.0 °F - 12.2 °F 93% 30.05 in 3.0 mi Calm Calm - N/A   Overcast
1:44 AM 15.8 °F - 12.2 °F 86% 30.05 in 3.0 mi Calm Calm - N/A   Overcast
1:49 AM 15.8 °F - 12.2 °F 86% 30.05 in 2.5 mi Calm Calm - N/A   Overcast
1:51 AM 15.1 °F - 12.0 °F 88% 30.16 in 2.5 mi Calm Calm - N/A   Overcast
2:00 AM 12.2 °F - 8.6 °F 85% 30.05 in 1.2 mi Calm Calm - N/A   Mostly Cloudy
2:13 AM 14.0 °F - 12.2 °F 93% 30.05 in 0.8 mi Calm Calm - N/A   Scattered Clouds
2:19 AM 14.0 °F 8.2 °F 10.4 °F 86% 30.05 in 1.2 mi SE 3.5 mph - N/A   Partly Cloudy
2:22 AM 12.2 °F 6.1 °F 10.4 °F 92% 30.05 in 0.8 mi SE 3.5 mph - N/A   Mist
2:34 AM 12.2 °F - 10.4 °F 92% 30.05 in 1.2 mi Calm Calm - N/A   Partly Cloudy
2:39 AM 10.4 °F - 10.4 °F 100% 30.05 in 3.0 mi Calm Calm - N/A   Partly Cloudy
2:43 AM 10.4 °F - 8.6 °F 92% 30.06 in 1.2 mi Calm Calm - N/A   Partly Cloudy
2:48 AM 6.8 °F - 3.2 °F 85% 30.06 in 0.2 mi Calm Calm - N/A Fog Light Freezing Fog
2:51 AM 3.9 °F - 1.9 °F 91% 30.21 in 0.2 mi Calm Calm - N/A Fog Light Freezing Fog
3:51 AM 5.0 °F -2.1 °F 1.9 °F 87% 30.21 in 0.2 mi ESE 3.5 mph - N/A Fog Light Freezing Fog
4:51 AM -0.0 °F -9.9 °F -2.0 °F 91% 30.24 in 0.2 mi West 4.6 mph - N/A Fog Light Freezing Fog
5:05 AM -2.2 °F - -5.8 °F 85% 30.07 in 0.2 mi Calm Calm - N/A Fog Light Freezing Fog
5:31 AM 3.2 °F - -0.4 °F 85% 30.08 in 1.0 mi Calm Calm - N/A   Overcast
5:37 AM 3.2 °F - -0.4 °F 85% 30.08 in 3.0 mi Calm Calm - N/A   Overcast
5:51 AM 6.1 °F -2.8 °F 1.9 °F 83% 30.25 in 6.0 mi SE 4.6 mph - N/A   Overcast
6:06 AM 8.6 °F 2.0 °F 5.0 °F 85% 30.09 in 10.0 mi SE 3.5 mph - N/A   Overcast
6:51 AM -2.9 °F -13.3 °F -7.1 °F 82% 30.29 in 6.0 mi SW 4.6 mph - N/A   Clear
7:30 AM -2.2 °F - -4.0 °F 92% 30.11 in 1.2 mi Calm Calm - N/A   Clear
7:35 AM -5.8 °F - -9.4 °F 84% 30.11 in 0.2 mi Calm Calm - N/A Fog Light Freezing Fog
7:51 AM -2.9 °F -11.2 °F -6.0 °F 87% 30.32 in 1.2 mi North 3.5 mph - N/A   Partly Cloudy
7:57 AM -2.2 °F -12.5 °F -7.6 °F 78% 30.12 in 4.0 mi NNE 4.6 mph - N/A   Partly Cloudy
8:51 AM 5.0 °F - 1.9 °F 87% 30.31 in 7.0 mi Calm Calm - N/A   Clear
9:16 AM -0.4 °F -8.3 °F -2.2 °F 92% 30.13 in 2.0 mi WNW 3.5 mph - N/A   Partly Cloudy
9:18 AM -0.4 °F -8.3 °F -2.2 °F 92% 30.13 in 1.0 mi WNW 3.5 mph - N/A   Mist
9:23 AM 1.4 °F - -0.4 °F 92% 30.14 in 0.5 mi Calm Calm - N/A Fog Light Freezing Fog
9:51 AM 5.0 °F - 1.9 °F 87% 30.33 in 1.0 mi Calm Calm - N/A   Mist
9:54 AM 6.8 °F - 3.2 °F 85% 30.15 in 2.5 mi Calm Calm - N/A   Scattered Clouds
9:59 AM 3.2 °F - 3.2 °F 100% 30.15 in 9.0 mi Calm Calm - N/A   Scattered Clouds
10:51 AM 9.0 °F - 5.0 °F 84% 30.35 in 10.0 mi Calm Calm - N/A   Clear
11:51 AM 9.0 °F 0.6 °F 6.1 °F 88% 30.33 in 10.0 mi WSW 4.6 mph - N/A   Clear
12:51 PM 12.0 °F - 6.1 °F 77% 30.33 in 10.0 mi Calm Calm - N/A   Clear
1:51 PM 14.0 °F - 5.0 °F 67% 30.32 in 10.0 mi Calm Calm - N/A   Clear
2:51 PM 12.9 °F 2.6 °F 6.1 °F 74% 30.35 in 10.0 mi West 6.9 mph - N/A   Clear
3:51 PM 17.1 °F - 5.0 °F 59% 30.34 in 10.0 mi Calm Calm - N/A   Clear
4:51 PM 12.9 °F 5.2 °F 5.0 °F 71% 30.38 in 10.0 mi North 4.6 mph - N/A   Clear
5:51 PM 10.9 °F 4.7 °F 3.0 °F 70% 30.37 in 10.0 mi NNE 3.5 mph - N/A   Clear
6:51 PM 6.1 °F - -0.0 °F 76% 30.44 in 10.0 mi Calm Calm - N/A   Clear
7:51 PM 7.0 °F - 3.0 °F 84% 30.45 in 10.0 mi Calm Calm - N/A   Mostly Cloudy
8:51 PM 3.0 °F - 1.0 °F 91% 30.45 in 10.0 mi Calm Calm - N/A   Mostly Cloudy
9:51 PM 5.0 °F - 1.0 °F 84% 30.46 in 10.0 mi Calm Calm - N/A   Scattered Clouds
10:48 PM -0.4 °F - -0.4 °F 100% 30.23 in 1.5 mi Calm Calm - N/A   Partly Cloudy
10:51 PM -0.0 °F - -2.0 °F 91% 30.46 in 0.8 mi Calm Calm - N/A   Mist
11:32 PM 1.4 °F - -0.4 °F 92% 30.25 in 1.0 mi Calm Calm - N/A   Overcast
11:40 PM 3.2 °F - -0.4 °F 85% 30.25 in 3.0 mi Calm Calm - N/A   Overcast
11:51 PM 3.9 °F - 1.0 °F 88% 30.47 in 10.0 mi Calm Calm - N/A   Overcast